Preview of NWS' New Version of Forecast
This preview is not operational and should not be used for support decisions.

Regional Weather Roundup (RWR)

Issued by National Weather Service (NWS)

                            
000
ASUS45 KBOI 251610
RWRID 

IDAHO REGIONAL WEATHER ROUNDUP
NATIONAL WEATHER SERVICE BOISE ID
1000 AM MDT TUE JUN 25 2019

NOTE: "FAIR" INDICATES FEW OR NO CLOUDS BELOW 12000 FEET
WITH NO SIGNIFICANT WEATHER AND/OR OBSTRUCTIONS TO VISIBILITY

IDZ012-014-251700-
SOUTHWEST IDAHO

  
CITY           SKY/WX    TMP DP  RH WIND       PRES   REMARKS
BOISE          MOSUNNY   66  43  43 VRB5      29.85R                  
CALDWELL       MOSUNNY   68  43  40 W6        29.85R                  
MOUNTAIN HOME  PTSUNNY   68  41  37 VRB3      29.85S                  
$$

IDZ016-017-251700-
SOUTHCENTRAL IDAHO

  
CITY           SKY/WX    TMP DP  RH WIND       PRES   REMARKS
BURLEY         MOSUNNY   67  48  50 CALM      29.88S                  
JEROME         MOSUNNY   66  45  46 CALM      29.89S                  
TWIN FALLS     MOSUNNY   69  40  34 W8        29.89S                  
$$

IDZ019>023-251700-
SOUTHEAST IDAHO

  
CITY           SKY/WX    TMP DP  RH WIND       PRES   REMARKS
IDAHO FALLS    MOSUNNY   65  46  50 E9        29.93F                  
POCATELLO      MOSUNNY   71  36  27 E3        29.89F                  
REXBURG        SUNNY     68  41  37 S5        29.93F                  
$$

IDZ006-010-011-018-031-032-251700-
CENTRAL IDAHO MOUNTAINS

  
CITY           SKY/WX    TMP DP  RH WIND       PRES   REMARKS
MCCALL         CLOUDY    54  40  59 SE3       29.92R                  
HAILEY         MOSUNNY   61  39  44 NW7       29.96F                  
STANLEY          N/A     52  37  56 VRB6      30.00F                  
SALMON         LGT RAIN  51  45  79 CALM      29.98S                  
CHALLIS        PTSUNNY   58  43  57 N9        29.97F                  
$$

IDZ002-004-006-007-026-251700-
NORTHERN IDAHO

  
CITY           SKY/WX    TMP DP  RH WIND       PRES   REMARKS
LEWISTON       LGT RAIN  54  45  71 NE7       29.88F                  
LOWELL           N/A     56  46  69 CALM      29.91F                  
COEUR D'ALENE  PTSUNNY   59  48  67 NE8       29.90F                  
MULLAN PASS      N/A    N/A N/A N/A MISG      29.96S                  
$$